Location: Antioch Baptist Church
(32.6696°N, 85.7327°W)
Time: 12:24:14
(UTC+00:00)

SL-16 R/B - Pass Details

Date: 14 July 2020
Orbit: 985 x 1006 km, 99.5° (Epoch: 09 August)

Event Time Altitude Azimuth Distance (km) Brightness Sun altitude
Exits shadow 07:12:18 55° 91° (E) 1,191 2.9 -32.2°
Maximum altitude 07:12:47 56° 72° (ENE) 1,174 3.0 -32.2°
Drops below altitude 10° 07:18:53 10° 356° (N) 2,783 5.6 -31.6°
Sets 07:21:25 0° 352° (N) 3,738 6.3 -31.4°
